Flag for Gibraltar Weather past 2 weeks in Gibraltar, Gibraltar

Now
79 °F

Passing clouds.


Feels Like: 81 °F
Forecast: 69 / 82 °F
Wind: 12 mph from Southwest

Location: Gibraltar Airport

Current Time: Jul 30, 2015 at 11:22:16 AM

Latest Report: Jul 30, 2015 at 10:50 AM


Visibility: N/A

Pressure: 29.89 "Hg

Humidity: 65%

Dew point: 66 °F

Location of GibraltarLocation

Historic Weather in Gibraltar — Graph

°F

Gibraltar temperature yesterday

Maximum temperature yesterday: 91 °F (at 2:50 PM)
Minimum temperature yesterday: 73 °F (at 5:50 AM)
Average temperature yesterday: 82 °F

Past Weeks' High & Low Weather Summary

 TemperatureHumidityPressure
High99 °F (Jul 22, 2:50 PM)100% (Jul 16, 1:50 AM)30.04 "Hg (Jul 16, 1:50 AM)
Low70 °F (Jul 26, 6:50 AM)28% (Jul 22, 3:50 PM)29.80 "Hg (Jul 29, 5:50 PM)
Average80 °F67%29.94 "Hg
* Reported Jul 15 9:50 AM — Jul 30 9:50 AM, Gibraltar, Weather by CustomWeather, © 2015

Note: Actual official high and low records may vary slightly from our data, if they occured in-between our weather recording intervals... More about our weather records

Advertising

Gibraltar weather history for previous 24 hours

 ConditionsComfort  
Time TempWeatherWind HumidityBarometerVisibility
9:50 AM
Thu, Jul 30
77 °FPassing clouds.12 mph69%29.89 "HgN/A
8:50 AM75 °FPassing clouds.12 mph74%29.89 "HgN/A
7:50 AM73 °FPassing clouds.13 mph78%29.86 "HgN/A
5:50 AM75 °FClear.No wind78%29.86 "HgN/A
4:50 AM75 °FClear.No wind78%29.86 "HgN/A
3:50 AM77 °FClear.No wind69%29.86 "HgN/A
2:50 AM73 °FClear.No wind78%29.86 "HgN/A
1:50 AM77 °FClear.No wind61%29.86 "HgN/A
12:50 AM79 °FClear.No wind54%29.86 "HgN/A
11:50 PM
Wed, Jul 29
79 °FClear.15 mph54%29.86 "HgN/A
10:50 PM81 °FClear.13 mph51%29.86 "Hg10 mi
9:50 PM81 °FSunny.14 mph51%29.83 "Hg10 mi
8:50 PM84 °FSunny.14 mph45%29.80 "Hg10 mi
7:50 PM86 °FSunny.13 mph46%29.80 "Hg10 mi
6:50 PM90 °FPassing clouds.12 mph41%29.80 "HgN/A
5:50 PM90 °FPassing clouds.12 mph43%29.80 "HgN/A
4:50 PM90 °FPassing clouds.16 mph43%29.83 "HgN/A
3:50 PM88 °FPassing clouds.16 mph38%29.83 "HgN/A
2:50 PM91 °FSunny.12 mph32%29.86 "Hg10 mi
1:50 PM88 °FSunny.13 mph40%29.86 "Hg10 mi
12:50 PM86 °FSunny.12 mph49%29.89 "Hg10 mi
11:50 AM84 °FPassing clouds.8 mph55%29.89 "HgN/A
Weather by CustomWeather, © 2015

See weather overviewHow to use our weather pages